EDT,Max TemperatureF,Mean TemperatureF,Min TemperatureF,Max Dew PointF,MeanDew PointF,Min DewpointF,Max Humidity, Mean Humidity, Min Humidity, Max Sea Level PressureIn, Mean Sea Level PressureIn, Min Sea Level PressureIn, Max VisibilityMiles, Mean VisibilityMiles, Min VisibilityMiles, Max Wind SpeedMPH, Mean Wind SpeedMPH, Max Gust SpeedMPH,PrecipitationIn, CloudCover, Events, WindDirDegrees
2013-10-1,80,66,53,59,54,50,88,69,42,30.02,29.98,29.92,10,10,7,12,6,,0.00,0,,269
2013-10-2,82,70,57,61,58,54,88,67,45,30.03,29.98,29.94,10,9,4,15,6,20,0.00,0,,270
2013-10-3,77,67,57,59,55,52,88,65,44,30.13,30.08,30.03,10,10,8,9,4,,0.00,0,,227
2013-10-4,86,73,60,64,61,54,88,69,45,30.08,30.04,29.99,10,9,3,12,5,,0.00,0,,231
2013-10-5,71,68,64,63,62,61,94,84,73,30.10,30.06,30.02,10,6,1,9,5,,0.00,5,,90
2013-10-6,69,66,64,66,64,63,94,90,83,30.10,30.06,30.03,7,2,0,10,6,,0.00,7,,122
2013-10-7,78,69,60,68,63,52,88,82,65,30.03,29.92,29.81,10,10,6,25,9,37,0.24,6,,195
2013-10-8,66,58,51,52,44,41,82,62,42,30.30,30.20,30.02,10,10,10,14,7,21,0.00,0,,347
2013-10-9,62,58,55,48,46,39,67,60,45,30.36,30.31,30.25,10,10,10,21,12,30,0.00,5,,61
2013-10-10,62,58,55,57,53,48,88,80,67,30.26,30.14,30.04,10,9,2,20,14,28,0.19,8,,47
2013-10-11,64,62,60,59,57,55,88,82,73,30.06,30.01,29.98,10,8,1,20,15,30,0.57,8,,52
2013-10-12,66,63,60,55,51,45,82,67,52,30.25,30.14,30.04,10,10,8,23,15,33,0.00,8,,54
2013-10-13,62,60,57,52,49,45,82,69,55,30.36,30.32,30.24,10,10,10,21,16,30,0.00,6,,67
2013-10-14,62,55,48,48,47,45,87,71,59,30.35,30.31,30.26,10,10,10,12,6,,0.00,3,,51
2013-10-15,66,56,46,54,47,43,93,74,46,30.26,30.19,30.11,10,10,10,10,4,,0.00,1,,43
2013-10-16,64,58,53,57,55,48,94,83,73,30.11,30.02,29.94,10,10,6,9,5,,0.00,7,,62
2013-10-17,71,66,60,61,59,55,88,82,64,29.93,29.85,29.72,10,8,3,10,5,,0.02,7,,211
2013-10-18,66,58,50,61,45,39,88,57,43,30.00,29.88,29.71,10,10,9,20,11,29,0.00,1,,277
2013-10-19,64,54,44,54,44,37,88,70,55,30.00,29.91,29.78,10,10,8,9,3,17,0.02,3,,211
2013-10-20,62,54,46,54,38,34,88,58,34,30.08,29.95,29.78,10,10,10,16,10,24,0.00,1,,280
2013-10-21,66,54,41,43,38,34,76,56,32,30.16,30.09,30.00,10,10,10,13,6,18,0.00,0,,233
2013-10-22,69,58,46,48,44,36,87,65,43,30.00,29.85,29.78,10,10,10,16,6,21,0.00,1,,239
2013-10-23,53,47,41,45,37,34,81,68,51,29.82,29.72,29.60,10,10,10,13,6,17,0.00,6,,337
2013-10-24,53,45,37,34,29,25,81,57,35,30.04,29.92,29.78,10,10,10,18,9,24,0.00,2,,272
2013-10-25,53,45,37,30,28,25,65,55,38,30.25,30.14,30.04,10,10,10,18,9,25,0.00,1,,283
2013-10-26,55,44,33,30,29,27,75,54,33,30.24,30.11,29.92,10,10,10,20,8,26,0.00,1,,233
2013-10-27,57,49,41,34,30,28,61,47,36,30.14,29.99,29.88,10,10,10,18,8,23,0.00,2,,270
2013-10-28,62,48,35,36,31,27,70,54,36,30.30,30.21,30.14,10,10,4,15,5,21,0.00,0,,273
2013-10-29,55,48,41,39,36,34,76,63,51,30.40,30.36,30.30,10,10,10,13,6,17,0.00,0,,47
2013-10-30,57,48,39,52,43,32,88,79,70,30.35,30.26,30.20,10,9,3,8,1,,0.01,5,,247
2013-10-31,68,60,51,59,54,46,88,78,68,30.24,30.07,29.84,10,9,4,14,5,21,0.02,6,,170